Terug naar catalogus

HULIANWANG DIGUI-117

ActiefCommunicatiePO
NORAD 66956·PAYLOAD·🇨🇳 China

Gelanceerd Dec 8, 2025 vanaf Taiyuan Satellite Launch Center

Loading…

Volgende Passages (komende 24 uur)

TLE

VersSource: Space-Track

Epoch: Sep 13, 2026, 10:26 UTC

1 66956U 25287D   26256.43497967 -.00000070  00000-0 -19645-3 0  9993
2 66956  86.4900 252.5598 0002833 111.0226 249.1211 13.24408821 37021

Volg HULIANWANG DIGUI-117 in realtime met AllMySat

Download on the App Store